CW1102 Weather Reports


Display with metric or nautical units.
time (UTC)temp
F
wind
direction
speed
MPH
gust
MPH
rain 1hr
in
rain 24hr
in
rain mn
in
humidity
%
barometer
mb
20260504043034 54 93 0.0 2.0 0.00 0.00 0.00 69 1008.5
20260504041536 56 98 0.0 2.0 0.00 0.00 0.00 64 1008.3
20260504040039 58 127 0.0 3.0 0.00 0.00 0.00 61 1008.1
20260504034545 60 151 0.0 1.0 0.00 0.00 0.00 56 1007.9
20260504033033 62 347 0.0 1.0 0.00 0.00 0.00 53 1007.8
20260504031535 64 27 1.0 2.0 0.00 0.00 0.00 51 1007.6
20260504030039 67 205 0.0 1.0 0.00 0.00 0.00 44 1007.4
20260504024533 69 162 1.0 6.0 0.00 0.00 0.00 37 1007.3
20260504023030 72 37 4.0 9.0 0.00 0.00 0.00 34 1007.2
20260504020030 73 22 5.0 8.0 0.00 0.00 0.00 35 1007.0
20260504014528 73 84 5.0 10.0 0.00 0.00 0.00 34 1007.0
20260504013027 73 333 3.0 9.0 0.00 0.00 0.00 35 1007.1
20260504011526 73 328 4.0 9.0 0.00 0.00 0.00 36 1007.0
20260504010025 73 342 5.0 9.0 0.00 0.00 0.00 35 1007.1
20260504004524 73 20 5.0 10.0 0.00 0.00 0.00 35 1007.2
20260504003122 74 329 4.0 8.0 0.00 0.00 0.00 35 1007.3
20260504001521 76 288 0.0 2.0 0.00 0.00 0.00 33 1007.3
20260504000020 74 293 1.0 3.0 0.00 0.00 0.00 34 1007.5
20260503234523 75 293 1.0 6.0 0.00 0.00 0.00 30 1007.5
20260503233016 76 317 3.0 9.0 0.00 0.00 0.00 29 1007.6
20260503231518 77 60 4.0 9.0 0.00 0.00 0.00 27 1007.6
20260503230014 77 314 1.0 7.0 0.00 0.00 0.00 26 1007.8
20260503224512 79 275 3.0 7.0 0.00 0.00 0.00 25 1007.9
20260503223020 81 285 1.0 6.0 0.00 0.00 0.00 24 1008.2
20260503221507 81 176 2.0 6.0 0.00 0.00 0.00 24 1008.4
20260503220006 81 257 1.0 4.0 0.00 0.00 0.00 25 1008.7
20260503214500 79 300 2.0 6.0 0.00 0.00 0.00 25 1009.0
20260503213133 78 244 4.0 9.0 0.00 0.00 0.00 26 1009.1
20260503211620 79 282 3.0 9.0 0.00 0.00 0.00 25 1009.3
20260503210054 79 237 1.0 5.0 0.00 0.00 0.00 24 1009.6
20260503204603 79 287 2.0 6.0 0.00 0.00 0.00 24 1009.9
20260503203049 79 264 1.0 5.0 0.00 0.00 0.00 24 1010.0
20260503201548 78 250 2.0 5.0 0.00 0.00 0.00 24 1010.2
20260503200046 78 154 2.0 6.0 0.00 0.00 0.00 25 1010.4
20260503194543 78 277 4.0 7.0 0.00 0.00 0.00 27 1010.7
20260503193040 78 141 1.0 5.0 0.00 0.00 0.00 28 1011.0
20260503191553 76 217 1.0 6.0 0.00 0.00 0.00 29 1011.2
20260503190134 74 109 3.0 6.0 0.00 0.00 0.00 30 1011.4
20260503184533 74 103 1.0 4.0 0.00 0.00 0.00 36 1011.7
20260503183035 71 39 1.0 6.0 0.00 0.00 0.00 43 1011.8
20260503181524 71 65 1.0 5.0 0.00 0.00 0.00 39 1012.0
20260503180028 72 108 1.0 3.0 0.00 0.00 0.00 36 1012.3
20260503174522 68 109 0.0 3.0 0.00 0.00 0.00 43 1012.5
20260503173015 65 82 2.0 5.0 0.00 0.00 0.00 45 1012.8
20260503171516 63 89 2.0 5.0 0.00 0.00 0.00 48 1012.8
20260503090106 43 122 0.0 1.0 0.00 0.00 0.00 85 1014.1
20260503081558 44 27 0.0 1.0 0.00 0.00 0.00 82 1014.0
20260503071603 46 110 0.0 1.0 0.00 0.00 0.00 80 1013.9
20260503054552 51 200 0.0 1.0 0.00 0.00 0.00 70 1013.2
20260503053037 51 127 1.0 2.0 0.00 0.00 0.00 71 1013.1
20260503051546 52 105 1.0 2.0 0.00 0.00 0.00 70 1013.0
20260503050036 53 120 0.0 1.0 0.00 0.00 0.00 68 1013.0
20260503044536 54 24 1.0 2.0 0.00 0.00 0.00 67 1012.9